This is the latest recevied weather packets stored in our database for station/object CQ0XVC-11. If no packets are shown the sender has not sent any weather packets the latest 10 day(s).
| Time | Temp. | Humidity | Pressure | Rain* | Wind** | Luminosity | Snow |
|---|---|---|---|---|---|---|---|
| 1778092682 | 16.67° C | 35% | 997.4 hPa | 0 mm | - | - | - |
| 1778092413 | 16.67° C | 36% | 997.5 hPa | 0 mm | - | - | - |
| 1778092379 | 16.67° C | 36% | 997.5 hPa | 0 mm | - | - | - |
| 1778092123 | 16.67° C | 36% | 997.4 hPa | 0 mm | - | - | - |
| 1778092077 | 16.67° C | 36% | 997.4 hPa | 0 mm | - | - | - |
| 1778091775 | 16.67° C | 35% | 997.5 hPa | 0 mm | - | - | - |
| 1778091210 | 17.22° C | 32% | 997.4 hPa | 0 mm | - | - | - |
| 1778091170 | 17.22° C | 32% | 997.4 hPa | 0 mm | - | - | - |
| 1778090869 | 17.22° C | 31% | 997.4 hPa | 0 mm | - | - | - |
| 1778090566 | 17.78° C | 31% | 997.4 hPa | 0 mm | - | - | - |
| 1778090302 | 17.78° C | 30% | 997.5 hPa | 0 mm | - | - | - |
| 1778090264 | 17.78° C | 30% | 997.5 hPa | 0 mm | - | - | - |
| 1778089962 | 17.78° C | 30% | 997.3 hPa | 0 mm | - | - | - |
| 1778089660 | 17.78° C | 28% | 997.7 hPa | 0 mm | - | - | - |
| 1778089409 | 17.78° C | 28% | 997.8 hPa | 0 mm | - | - | - |
| 1778089357 | 17.78° C | 28% | 997.8 hPa | 0 mm | - | - | - |
| 1778089056 | 18.33° C | 29% | 997.6 hPa | 0 mm | - | - | - |
| 1778088451 | 18.33° C | 28% | 997.5 hPa | 0 mm | - | - | - |
| 1778088148 | 18.33° C | 29% | 997.6 hPa | 0 mm | - | - | - |
| 1778087847 | 18.33° C | 28% | 997.7 hPa | 0 mm | - | - | - |
| 1778087582 | 18.33° C | 27% | 997.6 hPa | 0 mm | - | - | - |
| 1778087544 | 18.33° C | 27% | 997.6 hPa | 0 mm | - | - | - |
| 1778087243 | 18.33° C | 27% | 997.5 hPa | 0 mm | - | - | - |
| 1778086940 | 18.33° C | 29% | 997.6 hPa | 0 mm | - | - | - |
| 1778086670 | 18.33° C | 31% | 997.6 hPa | 0 mm | - | - | - |
* Rain since midnight (hover to see other rain measurements)
** Current wind speed in m/s (hover to see current wind gust speed)